QPF
0.00 0.00 0.01 0.01 0.01 0.01 0.01 0.01 0.02 0.02 0.02 0.01 0.01 0.01 0.01 0.01 0.01 0.01 0.01 0.01 0.00 0.00 0.00 0.01 0.01 0.01 0.01 0.00 0.00 0.01 0.01 0.01 0.01 0.01 0.01 0.01 0.01 0.01 0.01 0.01 0.01 0.01 0.02 0.02
0.00 0.00 0.00 0.01 0.01 0.01 0.01 0.01 0.01 0.01 0.01 0.01 0.01 0.01 0.00 0.00 0.01 0.02 0.01 0.01 0.01 0.00 0.01 0.01 0.01 0.01 0.01 0.00 0.00 0.01 0.01 0.01 0.02 0.02 0.01 0.02 0.02 0.01 0.01 0.01 0.01 0.01 0.02 0.02
0.01 0.00 0.01 0.02 0.02 0.01 0.01 0.02 0.01 0.02 0.02 0.01 0.01 0.01 0.01 0.00 0.01 0.02 0.02 0.01 0.01 0.01 0.01 0.01 0.01 0.01 0.01 0.01 0.01 0.01 0.01 0.02 0.02 0.02 0.02 0.02 0.01 0.01 0.01 0.02 0.01 0.01 0.02 0.02
0.02 0.01 0.02 0.02 0.01 0.01 0.01 0.02 0.02 0.01 0.01 0.01 0.00 0.01 0.01 0.01 0.00 0.01 0.02 0.01 0.01 0.01 0.01 0.01 0.01 0.01 0.02 0.02 0.02 0.02 0.02 0.02 0.02 0.02 0.02 0.02 0.01 0.01 0.01 0.01 0.01 0.01 0.01 0.01
0.03 0.02 0.01 0.01 0.01 0.01 0.01 0.02 0.02 0.01 0.01 0.01 0.01 0.00 0.01 0.01 0.00 0.01 0.02 0.01 0.01 0.01 0.01 0.01 0.01 0.01 0.01 0.02 0.02 0.02 0.02 0.02 0.02 0.02 0.02 0.01 0.01 0.00 0.00 0.01 0.01 0.01 0.01 0.01
0.04 0.03 0.01 0.01 0.01 0.01 0.01 0.02 0.01 0.01 0.01 0.01 0.01 0.01 0.01 0.00 0.00 0.01 0.02 0.01 0.01 0.01 0.01 0.01 0.01 0.01 0.01 0.01 0.01 0.01 0.02 0.02 0.02 0.01 0.01 0.01 0.00 0.00 0.00 0.00 0.01 0.01 0.01 0.01
0.04 0.03 0.02 0.02 0.01 0.01 0.02 0.02 0.01 0.00 0.00 0.00 0.00 0.00 0.00 0.00 0.00 0.02 0.02 0.02 0.01 0.01 0.01 0.01 0.01 0.01 0.01 0.01 0.01 0.01 0.01 0.02 0.01 0.01 0.01 0.01 0.00 0.00 0.00 0.01 0.01 0.01 0.02 0.02
0.05 0.05 0.04 0.02 0.01 0.02 0.02 0.01 0.00 0.00 0.00 0.00 0.00 0.00 0.00 0.00 0.00 0.02 0.02 0.02 0.02 0.01 0.01 0.01 0.01 0.01 0.01 0.01 0.01 0.01 0.01 0.01 0.01 0.01 0.01 0.01 0.01 0.01 0.01 0.01 0.01 0.01 0.02 0.02
0.04 0.04 0.02 0.01 0.02 0.02 0.01 0.01 0.00 0.00 0.00 0.00 0.00 0.00 0.00 0.00 0.00 0.02 0.02 0.02 0.02 0.02 0.02 0.01 0.01 0.01 0.01 0.01 0.01 0.01 0.01 0.01 0.01 0.01 0.01 0.01 0.01 0.01 0.01 0.01 0.01 0.01 0.01 0.02
0.02 0.02 0.01 0.01 0.01 0.01 0.01 0.01 0.01 0.01 0.00 0.00 0.00 0.00 0.00 0.00 0.00 0.01 0.02 0.02 0.02 0.02 0.02 0.02 0.02 0.02 0.02 0.02 0.02 0.02 0.01 0.01 0.01 0.01 0.01 0.01 0.01 0.01 0.01 0.01 0.01 0.01 0.01 0.01
0.02 0.01 0.01 0.01 0.01 0.01 0.01 0.01 0.01 0.01 0.01 0.01 0.00 0.00 0.00 0.00 0.00 0.01 0.02 0.02 0.02 0.02 0.02 0.02 0.02 0.02 0.02 0.02 0.02 0.01 0.01 0.01 0.01 0.01 0.01 0.01 0.01 0.01 0.01 0.01 0.01 0.02 0.02 0.02
0.02 0.01 0.02 0.01 0.01 0.01 0.01 0.01 0.01 0.01 0.01 0.01 0.01 0.01 0.01 0.01 0.01 0.01 0.02 0.02 0.02 0.02 0.02 0.02 0.02 0.03 0.03 0.02 0.02 0.01 0.01 0.01 0.01 0.01 0.01 0.01 0.01 0.01 0.01 0.01 0.01 0.01 0.01 0.02
0.03 0.02 0.02 0.01 0.01 0.01 0.01 0.01 0.01 0.01 0.01 0.01 0.01 0.01 0.01 0.01 0.01 0.01 0.01 0.02 0.02 0.02 0.03 0.03 0.03 0.03 0.02 0.02 0.02 0.01 0.01 0.01 0.01 0.01 0.01 0.01 0.01 0.01 0.01 0.01 0.02 0.02 0.01 0.01
0.02 0.02 0.02 0.01 0.01 0.01 0.01 0.02 0.01 0.01 0.01 0.01 0.01 0.01 0.01 0.01 0.01 0.01 0.01 0.02 0.03 0.03 0.03 0.03 0.03 0.03 0.02 0.02 0.02 0.02 0.01 0.01 0.01 0.02 0.02 0.02 0.02 0.01 0.02 0.02 0.02 0.02 0.02 0.02
0.02 0.02 0.02 0.02 0.01 0.01 0.01 0.01 0.01 0.01 0.01 0.01 0.01 0.01 0.01 0.02 0.02 0.02 0.02 0.02 0.03 0.03 0.03 0.02 0.02 0.02 0.03 0.02 0.02 0.02 0.02 0.02 0.02 0.02 0.02 0.02 0.02 0.02 0.02 0.02 0.02 0.02 0.02 0.03
0.02 0.02 0.01 0.01 0.01 0.01 0.01 0.01 0.01 0.01 0.01 0.02 0.02 0.02 0.02 0.02 0.03 0.03 0.03 0.03 0.03 0.03 0.03 0.03 0.03 0.02 0.02 0.02 0.02 0.02 0.02 0.02 0.02 0.02 0.02 0.02 0.02 0.02 0.02 0.02 0.01 0.01 0.02 0.02
0.02 0.02 0.02 0.01 0.01 0.01 0.02 0.02 0.02 0.02 0.02 0.02 0.03 0.03 0.03 0.03 0.03 0.04 0.05 0.04 0.04 0.04 0.04 0.04 0.04 0.03 0.02 0.02 0.01 0.01 0.02 0.02 0.02 0.02 0.02 0.02 0.02 0.02 0.02 0.02 0.02 0.02 0.02 0.02
0.03 0.03 0.03 0.03 0.02 0.02 0.02 0.02 0.03 0.03 0.03 0.04 0.04 0.03 0.03 0.04 0.04 0.05 0.05 0.04 0.04 0.04 0.04 0.04 0.03 0.03 0.02 0.02 0.01 0.01 0.02 0.02 0.03 0.02 0.03 0.02 0.02 0.02 0.02 0.02 0.01 0.01 0.02 0.02
0.02 0.02 0.02 0.02 0.02 0.03 0.02 0.02 0.03 0.04 0.04 0.04 0.04 0.04 0.04 0.05 0.05 0.05 0.05 0.04 0.04 0.04 0.04 0.03 0.03 0.02 0.03 0.03 0.03 0.03 0.03 0.03 0.03 0.02 0.02 0.02 0.02 0.02 0.02 0.01 0.01 0.01 0.01 0.01
0.02 0.02 0.02 0.02 0.02 0.02 0.03 0.03 0.03 0.04 0.04 0.04 0.03 0.03 0.04 0.04 0.05 0.05 0.04 0.04 0.05 0.05 0.04 0.03 0.03 0.03 0.03 0.04 0.04 0.03 0.03 0.03 0.02 0.02 0.02 0.02 0.01 0.01 0.01 0.01 0.01 0.01 0.01 0.01
0.03 0.03 0.02 0.03 0.03 0.03 0.04 0.04 0.04 0.05 0.05 0.04 0.04 0.04 0.03 0.03 0.03 0.03 0.03 0.04 0.04 0.04 0.03 0.03 0.03 0.04 0.04 0.04 0.04 0.03 0.03 0.02 0.02 0.02 0.01 0.01 0.01 0.01 0.01 0.01 0.01 0.01 0.01 0.01
0.03 0.03 0.03 0.03 0.03 0.04 0.04 0.04 0.04 0.04 0.05 0.04 0.04 0.03 0.03 0.03 0.03 0.03 0.03 0.04 0.04 0.04 0.03 0.03 0.03 0.04 0.03 0.03 0.04 0.03 0.03 0.02 0.02 0.01 0.01 0.01 0.01 0.01 0.01 0.01 0.01 0.01 0.01 0.01
0.03 0.03 0.03 0.03 0.03 0.04 0.03 0.04 0.04 0.04 0.04 0.05 0.04 0.04 0.04 0.04 0.03 0.03 0.04 0.04 0.04 0.04 0.03 0.04 0.04 0.03 0.03 0.03 0.03 0.03 0.03 0.02 0.02 0.01 0.01 0.01 0.01 0.01 0.01 0.01 0.01 0.01 0.01 0.01
0.02 0.02 0.02 0.02 0.02 0.02 0.02 0.03 0.03 0.04 0.04 0.04 0.05 0.05 0.04 0.03 0.03 0.04 0.04 0.04 0.04 0.03 0.03 0.03 0.03 0.02 0.02 0.02 0.02 0.02 0.02 0.02 0.02 0.01 0.01 0.01 0.01 0.02 0.02 0.01 0.01 0.01 0.01 0.01
0.02 0.02 0.02 0.02 0.02 0.02 0.02 0.02 0.02 0.02 0.02 0.03 0.03 0.03 0.03 0.03 0.03 0.03 0.03 0.03 0.03 0.02 0.02 0.02 0.02 0.01 0.01 0.01 0.02 0.02 0.02 0.02 0.02 0.02 0.02 0.02 0.02 0.02 0.01 0.01 0.01 0.01 0.01 0.01
0.01 0.01 0.02 0.02 0.02 0.02 0.02 0.02 0.02 0.02 0.02 0.02 0.02 0.02 0.02 0.02 0.02 0.02 0.02 0.02 0.02 0.02 0.01 0.01 0.01 0.01 0.01 0.01 0.01 0.01 0.02 0.02 0.02 0.02 0.02 0.02 0.01 0.01 0.01 0.01 0.01 0.01 0.01 0.01
0.01 0.02 0.02 0.02 0.02 0.02 0.02 0.02 0.01 0.01 0.02 0.02 0.02 0.02 0.02 0.02 0.02 0.02 0.02 0.02 0.01 0.01 0.01 0.01 0.01 0.01 0.01 0.01 0.01 0.01 0.01 0.01 0.01 0.01 0.01 0.01 0.01 0.01 0.01 0.01 0.01 0.01 0.01 0.01
MSLP
1016.79 1016.73 1016.71 1016.72 1016.73 1016.70 1016.63 1016.51 1016.36 1016.20 1016.06 1015.98 1015.97 1016.05 1016.18 1016.34 1016.49 1016.56 1016.51 1016.30 1015.92 1015.38 1014.73 1014.02 1013.30 1012.65 1012.12 1011.74 1011.54 1011.48 1011.55 1011.70 1011.87 1012.02 1012.11 1012.10 1011.99 1011.77 1011.45 1011.04 1010.57 1010.05 1009.53 1009.01
1016.85 1016.77 1016.76 1016.80 1016.86 1016.93 1016.98 1017.03 1017.07 1017.12 1017.19 1017.30 1017.44 1017.61 1017.78 1017.91 1017.96 1017.89 1017.66 1017.25 1016.67 1015.96 1015.15 1014.30 1013.49 1012.76 1012.18 1011.76 1011.51 1011.41 1011.45 1011.56 1011.71 1011.85 1011.95 1011.98 1011.92 1011.77 1011.54 1011.23 1010.85 1010.43 1009.97 1009.52
1017.14 1017.06 1017.07 1017.16 1017.30 1017.48 1017.68 1017.89 1018.10 1018.32 1018.54 1018.77 1018.99 1019.18 1019.31 1019.35 1019.26 1019.01 1018.58 1017.98 1017.22 1016.35 1015.41 1014.47 1013.58 1012.80 1012.16 1011.70 1011.41 1011.27 1011.26 1011.34 1011.46 1011.60 1011.72 1011.79 1011.80 1011.74 1011.61 1011.40 1011.13 1010.81 1010.43 1010.03
1017.71 1017.62 1017.66 1017.80 1018.02 1018.30 1018.62 1018.96 1019.30 1019.64 1019.95 1020.22 1020.44 1020.58 1020.61 1020.50 1020.24 1019.81 1019.21 1018.44 1017.53 1016.54 1015.51 1014.50 1013.57 1012.74 1012.07 1011.56 1011.22 1011.03 1010.96 1010.99 1011.08 1011.21 1011.34 1011.46 1011.55 1011.60 1011.58 1011.50 1011.35 1011.13 1010.84 1010.51
1018.53 1018.43 1018.47 1018.64 1018.92 1019.28 1019.68 1020.11 1020.52 1020.91 1021.23 1021.49 1021.64 1021.68 1021.57 1021.31 1020.88 1020.28 1019.53 1018.63 1017.63 1016.57 1015.50 1014.46 1013.49 1012.65 1011.93 1011.37 1010.96 1010.69 1010.54 1010.50 1010.54 1010.65 1010.79 1010.96 1011.13 1011.28 1011.39 1011.44 1011.42 1011.32 1011.13 1010.87
1019.52 1019.39 1019.42 1019.61 1019.91 1020.30 1020.74 1021.20 1021.63 1022.00 1022.29 1022.48 1022.53 1022.43 1022.18 1021.77 1021.19 1020.46 1019.61 1018.64 1017.60 1016.52 1015.44 1014.41 1013.44 1012.57 1011.81 1011.18 1010.68 1010.30 1010.05 1009.91 1009.87 1009.93 1010.07 1010.27 1010.50 1010.75 1010.98 1011.17 1011.28 1011.31 1011.23 1011.06
1020.53 1020.37 1020.39 1020.56 1020.86 1021.25 1021.69 1022.13 1022.53 1022.86 1023.07 1023.16 1023.09 1022.86 1022.48 1021.94 1021.26 1020.45 1019.55 1018.56 1017.53 1016.49 1015.45 1014.44 1013.48 1012.59 1011.79 1011.07 1010.46 1009.95 1009.56 1009.29 1009.15 1009.13 1009.23 1009.43 1009.71 1010.03 1010.37 1010.67 1010.91 1011.06 1011.10 1011.03
1021.43 1021.25 1021.24 1021.39 1021.67 1022.04 1022.45 1022.85 1023.20 1023.45 1023.58 1023.56 1023.38 1023.04 1022.55 1021.93 1021.19 1020.36 1019.46 1018.51 1017.54 1016.56 1015.58 1014.62 1013.68 1012.78 1011.92 1011.11 1010.37 1009.72 1009.17 1008.75 1008.47 1008.34 1008.36 1008.53 1008.82 1009.18 1009.58 1009.98 1010.33 1010.60 1010.75 1010.79
1022.10 1021.91 1021.89 1022.02 1022.29 1022.63 1023.00 1023.36 1023.64 1023.82 1023.87 1023.76 1023.50 1023.08 1022.53 1021.86 1021.11 1020.30 1019.45 1018.57 1017.68 1016.78 1015.89 1014.98 1014.07 1013.16 1012.24 1011.34 1010.47 1009.67 1008.96 1008.37 1007.93 1007.67 1007.59 1007.68 1007.93 1008.29 1008.72 1009.17 1009.60 1009.96 1010.22 1010.37
1022.49 1022.32 1022.30 1022.44 1022.69 1023.01 1023.36 1023.67 1023.91 1024.04 1024.02 1023.85 1023.53 1023.07 1022.50 1021.83 1021.10 1020.34 1019.55 1018.76 1017.96 1017.16 1016.34 1015.50 1014.62 1013.70 1012.74 1011.76 1010.78 1009.84 1008.97 1008.22 1007.63 1007.22 1007.01 1007.00 1007.17 1007.48 1007.89 1008.35 1008.82 1009.24 1009.58 1009.83
1022.63 1022.50 1022.51 1022.66 1022.92 1023.24 1023.57 1023.86 1024.07 1024.17 1024.12 1023.92 1023.58 1023.11 1022.53 1021.89 1021.20 1020.49 1019.78 1019.07 1018.36 1017.64 1016.90 1016.10 1015.25 1014.33 1013.35 1012.31 1011.25 1010.21 1009.22 1008.34 1007.61 1007.06 1006.71 1006.57 1006.63 1006.85 1007.20 1007.62 1008.08 1008.52 1008.92 1009.25
1022.63 1022.55 1022.61 1022.79 1023.07 1023.40 1023.73 1024.01 1024.21 1024.29 1024.23 1024.03 1023.68 1023.22 1022.66 1022.05 1021.40 1020.74 1020.08 1019.43 1018.79 1018.13 1017.43 1016.68 1015.86 1014.96 1013.97 1012.91 1011.82 1010.72 1009.66 1008.69 1007.85 1007.19 1006.72 1006.46 1006.39 1006.49 1006.74 1007.09 1007.49 1007.91 1008.32 1008.69
1022.62 1022.61 1022.72 1022.94 1023.24 1023.58 1023.91 1024.19 1024.38 1024.45 1024.39 1024.19 1023.85 1023.40 1022.86 1022.26 1021.64 1021.01 1020.38 1019.76 1019.15 1018.52 1017.85 1017.13 1016.34 1015.46 1014.50 1013.46 1012.38 1011.27 1010.20 1009.20 1008.31 1007.57 1007.00 1006.62 1006.43 1006.41 1006.54 1006.78 1007.09 1007.46 1007.84 1008.22
1022.74 1022.79 1022.95 1023.20 1023.51 1023.85 1024.17 1024.44 1024.61 1024.68 1024.60 1024.40 1024.06 1023.61 1023.08 1022.49 1021.87 1021.24 1020.61 1019.99 1019.37 1018.73 1018.07 1017.37 1016.60 1015.76 1014.84 1013.86 1012.83 1011.78 1010.75 1009.77 1008.87 1008.10 1007.48 1007.02 1006.73 1006.58 1006.58 1006.70 1006.91 1007.18 1007.51 1007.85
1023.07 1023.17 1023.35 1023.61 1023.92 1024.24 1024.53 1024.77 1024.91 1024.94 1024.85 1024.62 1024.27 1023.81 1023.27 1022.67 1022.03 1021.37 1020.72 1020.06 1019.41 1018.75 1018.08 1017.37 1016.63 1015.83 1014.97 1014.06 1013.12 1012.16 1011.22 1010.30 1009.46 1008.70 1008.06 1007.56 1007.18 1006.94 1006.82 1006.81 1006.90 1007.08 1007.31 1007.60
1023.60 1023.73 1023.93 1024.18 1024.46 1024.73 1024.97 1025.15 1025.24 1025.22 1025.09 1024.83 1024.45 1023.97 1023.40 1022.77 1022.10 1021.40 1020.70 1019.99 1019.29 1018.59 1017.89 1017.18 1016.44 1015.68 1014.89 1014.07 1013.24 1012.39 1011.55 1010.74 1009.97 1009.27 1008.64 1008.12 1007.69 1007.37 1007.16 1007.05 1007.02 1007.09 1007.23 1007.43
1024.25 1024.40 1024.60 1024.82 1025.06 1025.27 1025.44 1025.54 1025.56 1025.48 1025.28 1024.97 1024.56 1024.05 1023.45 1022.78 1022.08 1021.34 1020.58 1019.82 1019.07 1018.33 1017.59 1016.86 1016.13 1015.40 1014.67 1013.93 1013.20 1012.46 1011.73 1011.02 1010.35 1009.71 1009.13 1008.61 1008.16 1007.80 1007.51 1007.31 1007.20 1007.16 1007.21 1007.32
1024.92 1025.08 1025.26 1025.45 1025.63 1025.78 1025.86 1025.89 1025.82 1025.67 1025.41 1025.06 1024.60 1024.06 1023.43 1022.74 1022.01 1021.23 1020.44 1019.64 1018.84 1018.05 1017.28 1016.53 1015.80 1015.09 1014.39 1013.72 1013.05 1012.41 1011.77 1011.16 1010.56 1009.99 1009.45 1008.95 1008.50 1008.11 1007.78 1007.52 1007.34 1007.23 1007.20 1007.24
1025.45 1025.62 1025.80 1025.96 1026.09 1026.17 1026.19 1026.13 1026.00 1025.78 1025.47 1025.07 1024.58 1024.02 1023.39 1022.69 1021.94 1021.15 1020.34 1019.51 1018.68 1017.86 1017.06 1016.29 1015.54 1014.83 1014.15 1013.50 1012.88 1012.28 1011.70 1011.14 1010.59 1010.06 1009.56 1009.08 1008.63 1008.23 1007.89 1007.60 1007.38 1007.22 1007.14 1007.13
1025.76 1025.96 1026.14 1026.29 1026.38 1026.42 1026.38 1026.27 1026.08 1025.81 1025.47 1025.04 1024.55 1023.98 1023.35 1022.67 1021.93 1021.15 1020.34 1019.51 1018.67 1017.83 1017.01 1016.21 1015.44 1014.71 1014.01 1013.35 1012.73 1012.13 1011.56 1011.00 1010.46 1009.94 1009.44 1008.97 1008.52 1008.12 1007.77 1007.47 1007.23 1007.07 1006.97 1006.93
1025.83 1026.06 1026.26 1026.41 1026.50 1026.51 1026.45 1026.31 1026.09 1025.80 1025.44 1025.02 1024.53 1023.97 1023.37 1022.71 1022.00 1021.25 1020.46 1019.64 1018.80 1017.96 1017.12 1016.30 1015.50 1014.73 1013.99 1013.29 1012.62 1011.98 1011.36 1010.77 1010.20 1009.64 1009.12 1008.62 1008.16 1007.75 1007.39 1007.10 1006.87 1006.71 1006.62 1006.59
1025.72 1025.98 1026.21 1026.38 1026.48 1026.50 1026.44 1026.30 1026.07 1025.78 1025.43 1025.02 1024.54 1024.02 1023.45 1022.83 1022.16 1021.44 1020.68 1019.89 1019.07 1018.23 1017.38 1016.54 1015.70 1014.88 1014.08 1013.31 1012.56 1011.84 1011.14 1010.47 1009.82 1009.19 1008.61 1008.06 1007.57 1007.14 1006.77 1006.48 1006.27 1006.13 1006.07 1006.06
1025.50 1025.81 1026.07 1026.27 1026.40 1026.44 1026.40 1026.27 1026.07 1025.79 1025.45 1025.06 1024.62 1024.13 1023.59 1023.01 1022.38 1021.70 1020.98 1020.22 1019.41 1018.58 1017.73 1016.86 1015.99 1015.11 1014.25 1013.39 1012.54 1011.72 1010.91 1010.13 1009.37 1008.65 1007.97 1007.35 1006.80 1006.33 1005.94 1005.64 1005.44 1005.33 1005.29 1005.33
1025.30 1025.64 1025.93 1026.17 1026.32 1026.39 1026.38 1026.27 1026.09 1025.84 1025.53 1025.16 1024.74 1024.28 1023.77 1023.22 1022.63 1021.98 1021.29 1020.56 1019.78 1018.95 1018.10 1017.21 1016.30 1015.38 1014.45 1013.50 1012.56 1011.62 1010.69 1009.78 1008.91 1008.07 1007.29 1006.57 1005.94 1005.41 1004.98 1004.66 1004.45 1004.34 1004.33 1004.39
1025.20 1025.55 1025.87 1026.12 1026.30 1026.39 1026.40 1026.32 1026.16 1025.93 1025.63 1025.29 1024.89 1024.45 1023.96 1023.43 1022.86 1022.25 1021.58 1020.87 1020.10 1019.29 1018.44 1017.55 1016.61 1015.65 1014.66 1013.64 1012.61 1011.57 1010.53 1009.50 1008.50 1007.55 1006.65 1005.83 1005.11 1004.49 1004.00 1003.63 1003.39 1003.27 1003.26 1003.33
1025.26 1025.61 1025.91 1026.17 1026.35 1026.45 1026.46 1026.39 1026.25 1026.03 1025.75 1025.41 1025.02 1024.59 1024.12 1023.61 1023.06 1022.46 1021.82 1021.12 1020.38 1019.59 1018.74 1017.85 1016.90 1015.92 1014.89 1013.82 1012.72 1011.61 1010.48 1009.35 1008.24 1007.18 1006.17 1005.25 1004.42 1003.72 1003.14 1002.71 1002.41 1002.24 1002.19 1002.24
1025.47 1025.78 1026.06 1026.29 1026.45 1026.53 1026.54 1026.47 1026.32 1026.10 1025.83 1025.50 1025.12 1024.70 1024.24 1023.74 1023.20 1022.62 1022.00 1021.33 1020.61 1019.84 1019.01 1018.13 1017.20 1016.21 1015.17 1014.07 1012.94 1011.77 1010.58 1009.39 1008.20 1007.05 1005.95 1004.93 1004.01 1003.21 1002.54 1002.02 1001.64 1001.40 1001.30 1001.30
Thickness
5429 5435 5436 5438 5442 5444 5442 5444 5446 5456 5460 5470 5470 5470 5472 5472 5473 5475 5476 5477 5477 5478 5479 5481 5482 5483 5484 5485 5486 5487 5487 5487 5488 5488 5487 5487 5487 5486 5485 5484 5483 5481 5479 5477
5415 5425 5425 5426 5433 5435 5439 5442 5442 5447 5452 5459 5459 5457 5458 5460 5462 5464 5466 5467 5468 5469 5470 5471 5472 5474 5475 5477 5478 5478 5478 5479 5479 5479 5479 5479 5478 5477 5477 5476 5474 5473 5472 5470
5398 5409 5411 5412 5427 5430 5430 5433 5434 5435 5441 5444 5444 5445 5447 5449 5451 5453 5454 5456 5457 5458 5460 5462 5463 5465 5466 5468 5469 5469 5470 5471 5471 5471 5471 5470 5469 5469 5468 5467 5466 5464 5463 5462
5382 5390 5388 5418 5424 5425 5422 5420 5421 5422 5426 5428 5432 5434 5437 5438 5439 5441 5443 5445 5446 5448 5451 5453 5454 5456 5457 5459 5459 5461 5461 5462 5462 5462 5461 5461 5460 5460 5459 5458 5457 5456 5455 5454
5369 5373 5391 5408 5409 5407 5405 5405 5408 5409 5413 5414 5418 5421 5426 5428 5428 5429 5432 5434 5436 5438 5441 5443 5445 5446 5448 5449 5450 5451 5452 5453 5453 5453 5452 5452 5452 5451 5450 5449 5448 5447 5446 5445
5360 5367 5380 5396 5399 5400 5398 5392 5399 5398 5399 5398 5402 5403 5414 5417 5416 5417 5420 5423 5425 5428 5430 5433 5435 5436 5438 5440 5441 5442 5444 5445 5444 5444 5444 5444 5443 5442 5441 5440 5439 5438 5437 5435
5353 5358 5372 5382 5387 5390 5379 5380 5386 5386 5385 5386 5388 5391 5398 5401 5403 5406 5409 5412 5415 5417 5420 5422 5424 5426 5428 5430 5432 5434 5434 5435 5435 5435 5435 5435 5434 5432 5431 5430 5429 5428 5427 5425
5346 5348 5363 5374 5372 5367 5367 5371 5372 5373 5374 5375 5378 5381 5384 5388 5391 5394 5397 5400 5403 5406 5409 5411 5413 5416 5418 5420 5423 5424 5424 5425 5425 5425 5425 5425 5424 5422 5421 5419 5417 5416 5415 5413
5344 5354 5361 5359 5358 5359 5358 5358 5360 5361 5364 5364 5366 5369 5373 5376 5379 5382 5385 5388 5392 5394 5397 5400 5401 5404 5407 5410 5412 5413 5414 5415 5416 5416 5415 5414 5413 5412 5410 5409 5407 5406 5405 5404
5334 5343 5347 5347 5347 5348 5347 5347 5350 5351 5352 5354 5355 5358 5361 5364 5367 5370 5373 5376 5380 5382 5385 5388 5390 5392 5395 5398 5400 5402 5403 5404 5405 5406 5405 5404 5403 5402 5401 5400 5398 5397 5396 5394
5326 5332 5334 5338 5336 5336 5336 5337 5338 5340 5341 5343 5345 5348 5351 5354 5357 5360 5363 5366 5368 5371 5374 5377 5379 5382 5384 5386 5389 5391 5392 5394 5395 5395 5395 5393 5392 5392 5392 5391 5391 5390 5388 5387
5319 5322 5319 5323 5325 5324 5324 5326 5327 5329 5332 5334 5335 5338 5342 5345 5348 5351 5353 5356 5358 5360 5363 5366 5369 5372 5374 5376 5378 5380 5382 5383 5384 5384 5384 5383 5382 5381 5381 5381 5381 5381 5380 5379
5309 5311 5310 5311 5311 5311 5312 5314 5316 5318 5321 5323 5326 5329 5333 5336 5340 5342 5344 5346 5348 5351 5354 5356 5359 5362 5364 5366 5369 5371 5372 5373 5373 5374 5373 5373 5373 5372 5370 5370 5370 5370 5370 5369
5297 5297 5298 5300 5299 5301 5302 5304 5306 5309 5311 5313 5316 5320 5323 5327 5330 5332 5335 5337 5340 5343 5345 5347 5350 5352 5354 5357 5359 5361 5362 5363 5363 5363 5363 5363 5362 5362 5361 5360 5358 5357 5358 5358
5287 5286 5286 5288 5289 5291 5292 5294 5296 5298 5301 5303 5306 5309 5313 5316 5320 5323 5326 5329 5331 5333 5335 5338 5341 5343 5345 5347 5349 5350 5352 5352 5353 5353 5352 5352 5352 5351 5350 5349 5348 5346 5346 5347
5277 5278 5279 5279 5280 5281 5282 5283 5285 5288 5290 5294 5297 5300 5303 5306 5310 5314 5316 5319 5321 5323 5326 5328 5331 5333 5335 5337 5339 5340 5341 5343 5344 5343 5343 5342 5341 5340 5339 5338 5337 5336 5336 5336
5268 5270 5271 5271 5272 5272 5273 5274 5276 5278 5280 5284 5287 5290 5294 5297 5300 5303 5305 5308 5310 5312 5315 5318 5321 5323 5326 5328 5330 5331 5332 5332 5333 5333 5333 5332 5331 5330 5329 5328 5326 5326 5325 5326
5260 5261 5262 5262 5264 5264 5265 5266 5267 5269 5271 5275 5278 5281 5284 5287 5290 5293 5295 5297 5300 5302 5304 5307 5311 5314 5317 5319 5321 5321 5322 5322 5322 5322 5322 5321 5321 5319 5318 5317 5317 5316 5315 5316
5253 5255 5256 5257 5257 5257 5258 5258 5260 5262 5264 5266 5269 5272 5275 5278 5280 5283 5286 5288 5290 5292 5294 5297 5302 5304 5307 5309 5311 5311 5312 5312 5312 5312 5312 5312 5310 5308 5308 5307 5307 5306 5306 5306
5247 5248 5249 5250 5251 5250 5251 5252 5253 5254 5256 5258 5260 5263 5265 5268 5271 5274 5276 5278 5280 5282 5285 5288 5291 5294 5296 5298 5300 5301 5301 5302 5302 5301 5301 5300 5299 5298 5298 5298 5297 5297 5296 5295
5238 5240 5242 5242 5243 5244 5244 5245 5246 5247 5248 5250 5252 5254 5256 5258 5260 5263 5266 5269 5271 5273 5276 5279 5281 5283 5285 5288 5290 5290 5291 5291 5291 5290 5290 5289 5289 5288 5288 5287 5287 5287 5286 5286
5230 5232 5233 5235 5235 5236 5236 5237 5238 5239 5240 5242 5244 5246 5248 5249 5252 5254 5256 5258 5260 5264 5266 5268 5270 5273 5275 5277 5278 5279 5279 5279 5279 5279 5279 5279 5278 5278 5277 5277 5277 5277 5277 5276
5223 5224 5225 5226 5227 5227 5228 5228 5229 5231 5232 5233 5235 5237 5239 5241 5242 5245 5247 5249 5251 5254 5256 5258 5260 5263 5266 5266 5267 5267 5268 5268 5268 5268 5269 5269 5268 5268 5268 5267 5267 5267 5267 5267
5215 5216 5217 5218 5218 5219 5219 5220 5222 5223 5224 5225 5227 5229 5231 5232 5234 5235 5237 5240 5243 5245 5246 5248 5251 5253 5255 5255 5255 5256 5256 5257 5257 5258 5258 5258 5258 5258 5258 5258 5258 5259 5259 5259
5207 5208 5209 5209 5210 5211 5212 5213 5214 5216 5217 5218 5219 5220 5222 5223 5225 5226 5228 5230 5233 5235 5236 5238 5240 5243 5243 5244 5245 5245 5246 5247 5248 5248 5248 5249 5249 5250 5250 5250 5250 5250 5251 5251
5199 5200 5201 5201 5202 5203 5204 5206 5206 5207 5209 5210 5211 5212 5213 5215 5217 5218 5220 5222 5224 5225 5226 5227 5229 5231 5233 5234 5235 5236 5237 5237 5238 5238 5239 5240 5241 5242 5242 5243 5243 5243 5244 5244
5191 5192 5193 5194 5195 5196 5197 5198 5198 5199 5201 5202 5203 5204 5206 5207 5209 5210 5212 5213 5214 5215 5216 5217 5219 5221 5223 5224 5225 5227 5228 5229 5229 5230 5231 5232 5233 5234 5235 5235 5236 5236 5237 5237